TimeMST,TemperatureF,Dew PointF,Humidity,Sea Level PressureIn,VisibilityMPH,Wind Direction,Wind SpeedMPH,Gust SpeedMPH,PrecipitationIn,Events,Conditions,WindDirDegrees,DateUTC
12:09 AM,24.8,19.4,80,29.86,10.0,NW,9.2,-,N/A,,Mostly Cloudy,320,2013-02-18 07:09:00
12:35 AM,26.6,19.4,74,29.86,10.0,NNW,16.1,25.3,N/A,,Overcast,340,2013-02-18 07:35:00
12:53 AM,27.0,19.9,75,29.87,10.0,North,23.0,33.4,N/A,,Overcast,350,2013-02-18 07:53:00
2:53 AM,24.1,19.0,81,29.94,10.0,NNW,16.1,-,N/A,,Clear,330,2013-02-18 09:53:00
3:53 AM,25.0,19.0,78,29.96,10.0,NNW,18.4,-,N/A,,Mostly Cloudy,340,2013-02-18 10:53:00
4:53 AM,26.1,17.1,69,29.99,10.0,North,20.7,27.6,N/A,,Overcast,350,2013-02-18 11:53:00
5:49 AM,24.8,17.6,74,29.93,10.0,NNW,17.3,-,N/A,,Overcast,340,2013-02-18 12:49:00
5:53 AM,25.0,18.0,75,30.03,10.0,NNW,17.3,-,N/A,,Overcast,340,2013-02-18 12:53:00
6:02 AM,24.8,17.6,74,29.94,10.0,NNW,15.0,-,N/A,,Overcast,340,2013-02-18 13:02:00
6:11 AM,24.8,17.6,74,29.94,10.0,NNW,13.8,-,N/A,,Overcast,340,2013-02-18 13:11:00
6:38 AM,24.8,17.6,74,29.94,10.0,NNW,10.4,-,N/A,,Overcast,330,2013-02-18 13:38:00
6:53 AM,25.0,18.0,75,30.04,10.0,NNW,12.7,-,N/A,,Overcast,340,2013-02-18 13:53:00
7:53 AM,25.0,19.0,78,30.06,10.0,NNW,11.5,-,N/A,,Overcast,330,2013-02-18 14:53:00
8:36 AM,26.6,19.4,74,29.97,9.0,NW,11.5,-,0.00,Snow,Light Snow,320,2013-02-18 15:36:00
8:53 AM,27.0,19.0,72,30.07,9.0,NNW,11.5,-,0.00,,Overcast,340,2013-02-18 15:53:00
9:53 AM,26.1,19.0,75,30.09,2.5,NNW,12.7,-,0.00,Snow,Light Snow,340,2013-02-18 16:53:00
10:01 AM,26.6,19.4,74,29.98,1.0,NNW,10.4,-,0.00,Snow,Light Snow,340,2013-02-18 17:01:00
10:12 AM,24.8,21.2,86,29.99,0.8,NNW,11.5,-,0.00,Snow,Light Snow,340,2013-02-18 17:12:00
10:53 AM,25.0,21.0,85,30.11,0.5,North,11.5,-,0.00,Fog-Snow,Snow,350,2013-02-18 17:53:00
11:03 AM,24.8,21.2,86,30.00,1.0,NNW,9.2,-,0.00,Snow,Light Snow,340,2013-02-18 18:03:00
11:11 AM,26.6,21.2,80,30.00,1.5,NNW,9.2,-,0.00,Snow,Light Snow,340,2013-02-18 18:11:00
11:36 AM,26.6,21.2,80,30.00,2.0,NW,12.7,-,0.00,Snow,Light Snow,310,2013-02-18 18:36:00
11:44 AM,26.6,21.2,80,30.00,1.0,NW,12.7,-,0.00,Snow,Light Snow,310,2013-02-18 18:44:00
11:53 AM,25.0,21.0,85,30.12,1.0,NW,10.4,-,0.00,Snow,Light Snow,310,2013-02-18 18:53:00
12:04 PM,28.4,21.2,74,29.99,2.0,NW,12.7,-,0.00,Snow,Light Snow,310,2013-02-18 19:04:00
12:14 PM,28.4,23.0,80,29.99,7.0,NW,9.2,-,0.02,Snow,Light Snow,310,2013-02-18 19:14:00
12:47 PM,26.6,21.2,80,29.98,1.8,NNW,16.1,-,0.02,Snow,Light Snow,340,2013-02-18 19:47:00
12:49 PM,26.6,19.4,74,29.98,0.8,NNW,17.3,-,0.02,Snow,Light Snow,340,2013-02-18 19:49:00
12:53 PM,26.1,21.0,81,30.08,0.5,NNW,16.1,-,0.02,Snow,Snow,330,2013-02-18 19:53:00
1:03 PM,28.4,21.2,74,29.98,2.5,NNW,13.8,-,0.00,Snow,Light Snow,330,2013-02-18 20:03:00
1:10 PM,30.2,21.2,69,29.97,9.0,NW,12.7,-,0.00,,Mostly Cloudy,320,2013-02-18 20:10:00
1:17 PM,30.2,21.2,69,29.97,10.0,NNW,13.8,-,0.00,,Scattered Clouds,330,2013-02-18 20:17:00
1:53 PM,32.0,19.9,61,30.06,10.0,NNW,12.7,-,0.00,,Scattered Clouds,330,2013-02-18 20:53:00
2:53 PM,28.9,18.0,64,30.09,10.0,NW,17.3,23.0,N/A,,Mostly Cloudy,320,2013-02-18 21:53:00
3:53 PM,30.0,17.1,59,30.10,10.0,NNW,17.3,25.3,N/A,,Overcast,330,2013-02-18 22:53:00
4:53 PM,28.0,17.1,63,30.12,10.0,NNW,12.7,-,N/A,,Mostly Cloudy,340,2013-02-18 23:53:00
5:53 PM,24.1,16.0,71,30.14,10.0,NW,5.8,-,N/A,,Partly Cloudy,310,2013-02-19 00:53:00
6:53 PM,21.0,15.1,78,30.16,10.0,NW,4.6,-,N/A,,Clear,320,2013-02-19 01:53:00
7:53 PM,18.0,14.0,84,30.17,10.0,North,4.6,-,N/A,,Clear,350,2013-02-19 02:53:00
8:53 PM,16.0,12.0,84,30.18,10.0,Calm,Calm,-,N/A,,Clear,0,2013-02-19 03:53:00
9:53 PM,14.0,10.0,84,30.19,10.0,Calm,Calm,-,N/A,,Clear,0,2013-02-19 04:53:00
10:53 PM,10.9,8.1,88,30.21,10.0,ESE,3.5,-,N/A,,Clear,120,2013-02-19 05:53:00
11:53 PM,12.9,9.0,84,30.20,10.0,Calm,Calm,-,N/A,,Clear,0,2013-02-19 06:53:00